When you browse on this site, cookies collect data to enhance your experience and personalize the content and advertising you see.
Visit our Privacy Policy to learn more. By continuing to use the site, you agree to this use of cookies and data.
  • In Spain
  • List of Countries
  • For 7 days
  • Water Temperature
  • Satellite Maps
  • Weather Map
  • Weather Widgets
  • user-avatar
    Login

    Hourly Weather Oran

    Today, 19 July, Friday

    Time Temperature Precipitation Wind Pressure Humidity
    00:00 +26°C° 0 mm 2 mps 750 mmHg 71%
    01:00 +26°C° 0 mm 2 mps 749 mmHg 74%
    02:00 +25°C° 0 mm 2 mps 749 mmHg 77%
    03:00 +25°C° 0 mm 2 mps 749 mmHg 80%
    04:00 +25°C° 0 mm 2 mps 749 mmHg 81%
    05:00 +25°C° 0 mm 2 mps 749 mmHg 82%
    06:00 +25°C° 0 mm 2 mps 749 mmHg 83%
    07:00 +27°C° 0 mm 2 mps 749 mmHg 73%
    08:00 +29°C° 0 mm 2 mps 749 mmHg 62%
    09:00 +31°C° 0 mm 3 mps 749 mmHg 52%
    10:00 +33°C° 0 mm 4 mps 749 mmHg 47%
    11:00 +35°C° 0 mm 5 mps 749 mmHg 43%
    12:00 +38°C° 0 mm 6 mps 748 mmHg 38%
    13:00 +38°C° 0 mm 6 mps 748 mmHg 38%
    14:00 +38°C° 0 mm 7 mps 747 mmHg 39%
    15:00 +37°C° 0 mm 8 mps 747 mmHg 40%
    16:00 +36°C° 0 mm 7 mps 747 mmHg 40%
    17:00 +35°C° 0 mm 7 mps 746 mmHg 40%
    18:00 +34°C° 0 mm 7 mps 746 mmHg 41%
    19:00 +34°C° 0.1 mm 6 mps 747 mmHg 43%
    20:00 +33°C° 0.1 mm 5 mps 747 mmHg 45%
    21:00 +32°C° 0.1 mm 5 mps 747 mmHg 48%
    22:00 +32°C° 0 mm 4 mps 747 mmHg 50%
    23:00 +30°C° 0 mm 4 mps 747 mmHg 53%

    Tomorrow, 20 July, Saturday

    Time Temperature Precipitation Wind Pressure Humidity
    00:00 +30°C° 0 mm 4 mps 747 mmHg 56%
    01:00 +29°C° 0 mm 3 mps 747 mmHg 60%
    02:00 +28°C° 0 mm 3 mps 747 mmHg 65%
    03:00 +27°C° 0 mm 3 mps 747 mmHg 70%
    04:00 +27°C° 0 mm 2 mps 747 mmHg 72%
    05:00 +27°C° 0 mm 2 mps 747 mmHg 74%
    06:00 +26°C° 0 mm 1 mps 748 mmHg 77%
    07:00 +28°C° 0 mm 2 mps 748 mmHg 69%
    08:00 +30°C° 0 mm 2 mps 748 mmHg 61%
    09:00 +31°C° 0 mm 2 mps 749 mmHg 53%
    10:00 +34°C° 0 mm 2 mps 749 mmHg 50%
    11:00 +35°C° 0 mm 3 mps 749 mmHg 47%
    12:00 +36°C° 0 mm 3 mps 749 mmHg 44%
    13:00 +37°C° 0 mm 3 mps 749 mmHg 42%
    14:00 +37°C° 0 mm 2 mps 749 mmHg 41%
    15:00 +37°C° 0 mm 2 mps 748 mmHg 39%
    16:00 +37°C° 0 mm 3 mps 749 mmHg 38%
    17:00 +37°C° 0 mm 5 mps 749 mmHg 36%
    18:00 +38°C° 0 mm 6 mps 750 mmHg 35%
    19:00 +38°C° 0 mm 6 mps 750 mmHg 32%
    20:00 +37°C° 0 mm 5 mps 751 mmHg 29%
    21:00 +38°C° 0 mm 4 mps 751 mmHg 26%
    22:00 +35°C° 0 mm 4 mps 751 mmHg 38%
    23:00 +33°C° 0 mm 3 mps 751 mmHg 49%

    Day after tomorrow, 21 July, Sunday

    Time Temperature Precipitation Wind Pressure Humidity
    00:00 +30°C° 0 mm 3 mps 751 mmHg 61%
    01:00 +29°C° 0 mm 2 mps 751 mmHg 61%
    02:00 +29°C° 0 mm 2 mps 750 mmHg 62%
    03:00 +29°C° 0 mm 1 mps 750 mmHg 63%
    04:00 +29°C° 0 mm 1 mps 750 mmHg 62%
    05:00 +29°C° 0 mm 1 mps 750 mmHg 60%
    06:00 +30°C° 0 mm 1 mps 751 mmHg 59%
    07:00 +31°C° 0 mm 1 mps 751 mmHg 54%
    08:00 +32°C° 0 mm 2 mps 752 mmHg 48%
    09:00 +35°C° 0 mm 2 mps 752 mmHg 43%
    10:00 +36°C° 0 mm 2 mps 752 mmHg 41%
    11:00 +37°C° 0 mm 3 mps 752 mmHg 38%
    12:00 +38°C° 0 mm 4 mps 752 mmHg 36%
    13:00 +38°C° 0 mm 4 mps 751 mmHg 36%
    14:00 +39°C° 0 mm 5 mps 751 mmHg 36%
    15:00 +40°C° 0 mm 6 mps 751 mmHg 36%
    16:00 +39°C° 0 mm 5 mps 751 mmHg 36%
    17:00 +37°C° 0 mm 4 mps 751 mmHg 37%
    18:00 +37°C° 0 mm 3 mps 751 mmHg 37%
    19:00 +35°C° 0 mm 3 mps 752 mmHg 46%
    20:00 +33°C° 0 mm 3 mps 752 mmHg 54%
    21:00 +30°C° 0 mm 2 mps 752 mmHg 63%
    22:00 +29°C° 0 mm 2 mps 752 mmHg 65%
    23:00 +29°C° 0 mm 3 mps 752 mmHg 67%

    22 July, Monday

    Time Temperature Precipitation Wind Pressure Humidity
    00:00 +29°C° 0 mm 3 mps 752 mmHg 69%
    01:00 +28°C° 0 mm 2 mps 752 mmHg 71%
    02:00 +28°C° 0 mm 2 mps 751 mmHg 73%
    03:00 +27°C° 0 mm 2 mps 751 mmHg 76%
    04:00 +27°C° 0 mm 2 mps 751 mmHg 77%
    05:00 +27°C° 0 mm 2 mps 752 mmHg 78%
    06:00 +27°C° 0 mm 3 mps 752 mmHg 79%
    07:00 +28°C° 0 mm 3 mps 752 mmHg 70%
    08:00 +30°C° 0 mm 2 mps 752 mmHg 61%
    09:00 +32°C° 0 mm 2 mps 752 mmHg 52%
    10:00 +34°C° 0 mm 3 mps 752 mmHg 49%
    11:00 +35°C° 0 mm 3 mps 752 mmHg 46%
    12:00 +36°C° 0 mm 3 mps 752 mmHg 43%
    13:00 +36°C° 0 mm 3 mps 751 mmHg 43%
    14:00 +37°C° 0 mm 4 mps 751 mmHg 43%
    15:00 +37°C° 0 mm 4 mps 750 mmHg 43%
    16:00 +36°C° 0 mm 5 mps 750 mmHg 44%
    17:00 +35°C° 0 mm 5 mps 750 mmHg 45%
    18:00 +34°C° 0 mm 5 mps 750 mmHg 45%
    19:00 +34°C° 0 mm 4 mps 750 mmHg 47%
    20:00 +33°C° 0 mm 3 mps 751 mmHg 49%
    21:00 +31°C° 0 mm 2 mps 751 mmHg 50%
    22:00 +30°C° 0 mm 2 mps 751 mmHg 60%
    23:00 +28°C° 0 mm 3 mps 751 mmHg 69%

    23 July, Tuesday

    Time Temperature Precipitation Wind Pressure Humidity
    00:00 +27°C° 0 mm 4 mps 750 mmHg 78%
    01:00 +27°C° 0 mm 3 mps 750 mmHg 78%
    02:00 +27°C° 0 mm 2 mps 750 mmHg 77%
    03:00 +27°C° 0 mm 1 mps 750 mmHg 77%
    04:00 +27°C° 0 mm 1 mps 750 mmHg 77%
    05:00 +27°C° 0 mm 2 mps 750 mmHg 77%
    06:00 +27°C° 0 mm 2 mps 750 mmHg 78%
    07:00 +28°C° 0 mm 2 mps 750 mmHg 69%
    08:00 +30°C° 0 mm 2 mps 750 mmHg 61%
    09:00 +32°C° 0 mm 2 mps 750 mmHg 53%
    10:00 +33°C° 0 mm 3 mps 750 mmHg 52%
    11:00 +34°C° 0 mm 3 mps 750 mmHg 51%
    12:00 +35°C° 0 mm 3 mps 750 mmHg 51%
    13:00 +35°C° 0 mm 3 mps 749 mmHg 49%
    14:00 +36°C° 0 mm 4 mps 749 mmHg 47%
    15:00 +36°C° 0 mm 4 mps 749 mmHg 45%
    16:00 +36°C° 0 mm 5 mps 749 mmHg 44%
    17:00 +35°C° 0 mm 5 mps 749 mmHg 44%
    18:00 +35°C° 0 mm 5 mps 748 mmHg 44%
    19:00 +33°C° 0 mm 5 mps 749 mmHg 48%
    20:00 +32°C° 0 mm 5 mps 749 mmHg 51%
    21:00 +30°C° 0 mm 4 mps 749 mmHg 55%
    22:00 +29°C° 0 mm 4 mps 749 mmHg 63%
    23:00 +28°C° 0 mm 3 mps 749 mmHg 71%

    24 July, Wednesday

    Time Temperature Precipitation Wind Pressure Humidity
    00:00 +27°C° 0 mm 3 mps 749 mmHg 79%
    01:00 +27°C° 0 mm 2 mps 749 mmHg 80%
    02:00 +26°C° 0 mm 1 mps 749 mmHg 81%
    03:00 +26°C° 0 mm 1 mps 748 mmHg 83%
    04:00 +26°C° 0 mm 1 mps 748 mmHg 82%
    05:00 +26°C° 0 mm 1 mps 748 mmHg 81%
    06:00 +26°C° 0 mm 1 mps 748 mmHg 80%
    07:00 +28°C° 0 mm 1 mps 748 mmHg 73%
    08:00 +29°C° 0 mm 2 mps 749 mmHg 67%
    09:00 +31°C° 0 mm 2 mps 749 mmHg 60%
    10:00 +32°C° 0 mm 2 mps 748 mmHg 56%
    11:00 +34°C° 0 mm 2 mps 748 mmHg 52%
    12:00 +35°C° 0 mm 2 mps 748 mmHg 48%
    13:00 +35°C° 0 mm 3 mps 748 mmHg 48%
    14:00 +35°C° 0 mm 3 mps 747 mmHg 48%
    15:00 +35°C° 0 mm 3 mps 747 mmHg 48%
    16:00 +34°C° 0 mm 3 mps 747 mmHg 51%
    17:00 +32°C° 0 mm 2 mps 747 mmHg 55%
    18:00 +31°C° 0 mm 2 mps 746 mmHg 58%
    19:00 +30°C° 0 mm 2 mps 747 mmHg 63%
    20:00 +29°C° 0 mm 2 mps 747 mmHg 68%
    21:00 +27°C° 0 mm 2 mps 748 mmHg 74%
    22:00 +27°C° 0 mm 2 mps 748 mmHg 75%
    23:00 +27°C° 0 mm 2 mps 747 mmHg 77%
    Show more